Regional Weather Roundup
Issued by NWS

Home | Current Version | Previous Version | Graphics & Text | Print | Product List | Glossary Off
Versions: 1 2 3 4 5 6 7 8 9 10 11 12 13 14 15 16 17 18 19 20 21 22 23 24 25 26 27 28 29 30 31 32 33 34 35 36 37 38 39 40 41 42 43 44 45 46 47 48 49 50

000
ASUS43 KTOP 242059
RWRKS

WEATHER ROUNDUP FOR KANSAS
NATIONAL WEATHER SERVICE GOODLAND KS
400 PM CDT MON APR 24 2017

NOTE:  "FAIR" INDICATES FEW OR NO CLOUDS BELOW 12,000 FEET WITH NO
SIGNIFICANT WEATHER AND/OR OBSTRUCTIONS TO VISIBILITY.

KSZ001>006-013>018-027>032-041>047-242200-
NORTHWEST KANSAS

CITY           SKY/WX    TMP DP  RH WIND       PRES   REMARKS
GOODLAND       SUNNY     74  40  29 VRB5      29.58F
HAYS           SUNNY     79  47  32 NW10      29.51F
HILL CITY      SUNNY     79  42  26 VRB3      29.52F
RUSSELL        SUNNY     80  45  28 W14       29.49S
$$

KSZ061>065-074>080-084>089-242200-
SOUTHWEST KANSAS

CITY           SKY/WX    TMP DP  RH WIND       PRES   REMARKS
DODGE CITY     CLOUDY    79  40  24 N7        29.56F
ELKHART          N/A     83  40  21 SE9         N/A
GARDEN CITY    CLOUDY    79  40  24 VRB6      29.57F
GREAT BEND     MOSUNNY   79  50  36 SW15G21   29.52F
$$

KSZ066>073-081>083-090>101-242200-
SOUTHEAST KANSAS

CITY           SKY/WX    TMP DP  RH WIND       PRES   REMARKS
CHANUTE        SUNNY     73  43  33 S23G32    29.65F
COFFEYVILLE    SUNNY     74  45  35 S21G29    29.67F
HUTCHINSON     MOSUNNY   75  48  38 S30G36    29.57F
MEDICINE LODGE   N/A     78  46  32 S22G33    29.54F
NEWTON         CLOUDY    72  50  45 S28G35    29.59F
PARSONS        SUNNY     73  46  38 S13G29    29.67F
WICHITA INTL   CLOUDY    75  49  39 S30G38    29.58F
WICHITA JABRA  MOSUNNY   74  47  38 S22G37    29.58F
WINFIELD       SUNNY     74  49  41 S24G35    29.62F
$$

KSZ007>012-019>026-033>040-048>060-102>105-242200-
NORTHEAST KANSAS

CITY           SKY/WX    TMP DP  RH WIND       PRES   REMARKS
CONCORDIA      SUNNY     73  49  42 S22G33    29.51F
EMPORIA        SUNNY     74  46  36 S18G29    29.60F
LAWRENCE       CLOUDY    75  42  30 S18G35    29.62F
MANHATTAN      SUNNY     76  46  34 S21G36    29.56F
OLATHE IND     CLOUDY    74  38  27 S22G32    29.65F
OLATHE EXE     CLOUDY    71  40  32 S21G31    29.64F
SALINA         SUNNY     77  50  38 S21G36    29.54F
TOPEKA BILLARD MOSUNNY   74  42  31 S21G30    29.61F
TOPEKA FORBES  MOSUNNY   75  42  30 S24G32    29.61F
$$




USA.gov is the U.S. government's official web portal to all federal, state and local government web resources and services.